Location: Caseificio
(44.7500°N, 11.0500°E)
Time: 16:07:29
(UTC+00:00)

Cosmos 839 Rocket - Pass Details

Date: 26 May 2022
Orbit: 968 x 2085 km, 65.9° (Epoch: 06 July)

Event Time Altitude Azimuth Distance (km) Brightness Sun altitude
Rises 00:36:23 0° 323° (NW) 3,702 7.5 -21.5°
Reaches altitude 10° 00:38:49 10° 320° (NW) 2,798 6.7 -21.3°
Maximum altitude 00:45:09 60° 242° (WSW) 1,269 4.3 -20.9°
Enters shadow 00:49:14 27° 173° (S) 2,131 5.3 -20.6°
